This is the latest recevied weather packets stored in our database for station/object EA1IDU-11. If no packets are shown the sender has not sent any weather packets the latest 10 day(s).
| Time | Temp. | Humidity | Pressure | Rain* | Wind** | Luminosity | Snow |
|---|---|---|---|---|---|---|---|
| 1777651050 | 31.67° C | 25% | 1026 hPa | - | - | - | - |
| 1777650150 | 31.67° C | 26% | 1026.1 hPa | - | - | - | - |
| 1777649250 | 31.67° C | 26% | 1026.1 hPa | - | - | - | - |
| 1777648350 | 31.67° C | 27% | 1026.1 hPa | - | - | - | - |
| 1777647450 | 31.11° C | 27% | 1026.2 hPa | - | - | - | - |
| 1777646550 | 30.56° C | 27% | 1026.3 hPa | - | - | - | - |
| 1777645650 | 30.56° C | 28% | 1026.4 hPa | - | - | - | - |
| 1777644750 | 30° C | 28% | 1026.6 hPa | - | - | - | - |
| 1777643849 | 30.56° C | 29% | 1026.8 hPa | - | - | - | - |
| 1777642949 | 30° C | 30% | 1026.8 hPa | - | - | - | - |
| 1777642048 | 29.44° C | 31% | 1026.9 hPa | - | - | - | - |
| 1777641148 | 29.44° C | 32% | 1026.9 hPa | - | - | - | - |
| 1777640248 | 28.89° C | 32% | 1027 hPa | - | - | - | - |
| 1777639348 | 28.89° C | 33% | 1027 hPa | - | - | - | - |
| 1777638448 | 29.44° C | 33% | 1026.9 hPa | - | - | - | - |
| 1777637548 | 28.89° C | 35% | 1027.1 hPa | - | - | - | - |
| 1777636648 | 28.89° C | 35% | 1027.1 hPa | - | - | - | - |
| 1777635747 | 27.78° C | 36% | 1027 hPa | - | - | - | - |
| 1777634847 | 27.22° C | 37% | 1027.2 hPa | - | - | - | - |
| 1777633947 | 27.22° C | 39% | 1027.3 hPa | - | - | - | - |
| 1777633047 | 27.22° C | 41% | 1027.3 hPa | - | - | - | - |
| 1777632147 | 26.67° C | 43% | 1027.4 hPa | - | - | - | - |
| 1777631247 | 26.67° C | 45% | 1027.5 hPa | - | - | - | - |
| 1777630347 | 26.11° C | 48% | 1027.7 hPa | - | - | - | - |
| 1777629447 | 25.56° C | 49% | 1027.7 hPa | - | - | - | - |
* Rain since midnight (hover to see other rain measurements)
** Current wind speed in m/s (hover to see current wind gust speed)